{"data":{"norad_id":68389,"epoch":"2026-09-19T15:45:39.449376Z","epoch_age_seconds":121257,"freshness":"FRESH","line1":"1 68389U 26063K   26262.65670659  .00010696  00000+0  33311-3 0  9998","line2":"2 68389  97.2861  43.5955 0001426  96.9346 263.2060 15.33451739 27627","mean_motion":15.33451739,"eccentricity":0.0001426,"inclination_deg":97.2861,"raan_deg":43.5955,"arg_perigee_deg":96.9346,"mean_anomaly_deg":263.206,"bstar":0.00033311,"rev_number":2762,"period_min":93.905791970933,"perigee_km":464.54721809516,"apogee_km":466.49902996254,"semimajor_km":6843.6601240288,"source":"CELESTRAK","updated_at":"2026-09-20T09:00:43.894582Z"}}